• In Italy
  • List of Countries
  • For 7 days
  • Water Temperature
  • Satellite Maps
  • Weather Map
  • Weather Widgets
  • user-avatar
    Login

    Hourly Weather Chakhansur

    Today, 18 December, Monday

    Time Temperature Precipitation Wind Pressure Humidity
    00:00 +15°C° 0 mm 1 mps 724 mmHg 19%
    01:00 +14°C° 0 mm 1 mps 724 mmHg 20%
    02:00 +14°C° 0 mm 2 mps 724 mmHg 21%
    03:00 +14°C° 0 mm 2 mps 724 mmHg 21%
    04:00 +14°C° 0 mm 2 mps 724 mmHg 21%
    05:00 +14°C° 0 mm 2 mps 724 mmHg 22%
    06:00 +14°C° 0 mm 2 mps 724 mmHg 22%
    07:00 +14°C° 0 mm 2 mps 724 mmHg 22%
    08:00 +16°C° 0 mm 2 mps 725 mmHg 20%
    09:00 +17°C° 0 mm 2 mps 725 mmHg 18%
    10:00 +19°C° 0 mm 2 mps 726 mmHg 15%
    11:00 +20°C° 0 mm 2 mps 725 mmHg 14%
    12:00 +21°C° 0 mm 2 mps 725 mmHg 13%
    13:00 +23°C° 0 mm 1 mps 724 mmHg 12%
    14:00 +23°C° 0 mm 1 mps 724 mmHg 12%
    15:00 +22°C° 0 mm 1 mps 724 mmHg 13%
    16:00 +20°C° 0 mm 0 mps 723 mmHg 13%
    17:00 +21°C° 0 mm 1 mps 724 mmHg 14%
    18:00 +20°C° 0 mm 1 mps 724 mmHg 15%
    19:00 +18°C° 0 mm 1 mps 724 mmHg 16%
    20:00 +18°C° 0 mm 1 mps 724 mmHg 17%
    21:00 +16°C° 0 mm 1 mps 724 mmHg 18%
    22:00 +16°C° 0 mm 1 mps 724 mmHg 19%
    23:00 +16°C° 0 mm 1 mps 724 mmHg 20%

    Tomorrow, 19 December, Tuesday

    Time Temperature Precipitation Wind Pressure Humidity
    00:00 +15°C° 0 mm 1 mps 724 mmHg 20%
    01:00 +15°C° 0 mm 2 mps 724 mmHg 21%
    02:00 +15°C° 0 mm 2 mps 724 mmHg 21%
    03:00 +15°C° 0 mm 2 mps 724 mmHg 22%
    04:00 +16°C° 0 mm 2 mps 724 mmHg 22%
    05:00 +15°C° 0 mm 2 mps 724 mmHg 23%
    06:00 +15°C° 0 mm 1 mps 724 mmHg 23%
    07:00 +15°C° 0 mm 1 mps 725 mmHg 24%
    08:00 +16°C° 0 mm 2 mps 725 mmHg 22%
    09:00 +18°C° 0 mm 2 mps 726 mmHg 19%
    10:00 +19°C° 0 mm 2 mps 726 mmHg 17%
    11:00 +20°C° 0 mm 2 mps 726 mmHg 17%
    12:00 +21°C° 0 mm 2 mps 725 mmHg 16%
    13:00 +21°C° 0 mm 2 mps 725 mmHg 16%
    14:00 +21°C° 0 mm 2 mps 725 mmHg 16%
    15:00 +21°C° 0 mm 2 mps 725 mmHg 17%
    16:00 +21°C° 0 mm 2 mps 725 mmHg 18%
    17:00 +20°C° 0 mm 3 mps 725 mmHg 23%
    18:00 +18°C° 0 mm 3 mps 725 mmHg 29%
    19:00 +17°C° 0 mm 3 mps 725 mmHg 34%
    20:00 +16°C° 0 mm 3 mps 725 mmHg 41%
    21:00 +14°C° 0 mm 3 mps 725 mmHg 48%
    22:00 +14°C° 0 mm 4 mps 725 mmHg 55%
    23:00 +13°C° 0 mm 3 mps 725 mmHg 57%

    Day after tomorrow, 20 December, Wednesday

    Time Temperature Precipitation Wind Pressure Humidity
    00:00 +13°C° 0 mm 3 mps 725 mmHg 60%
    01:00 +13°C° 0 mm 2 mps 725 mmHg 62%
    02:00 +12°C° 0 mm 2 mps 725 mmHg 63%
    03:00 +12°C° 0 mm 1 mps 725 mmHg 63%
    04:00 +11°C° 0 mm 1 mps 725 mmHg 64%
    05:00 +11°C° 0 mm 1 mps 726 mmHg 64%
    06:00 +11°C° 0 mm 1 mps 726 mmHg 64%
    07:00 +10°C° 0 mm 1 mps 726 mmHg 65%
    08:00 +12°C° 0 mm 1 mps 727 mmHg 57%
    09:00 +14°C° 0 mm 1 mps 727 mmHg 49%
    10:00 +15°C° 0 mm 0 mps 728 mmHg 41%
    11:00 +18°C° 0 mm 1 mps 728 mmHg 37%
    12:00 +19°C° 0 mm 1 mps 727 mmHg 33%
    13:00 +20°C° 0 mm 1 mps 727 mmHg 30%
    14:00 +21°C° 0 mm 1 mps 727 mmHg 29%
    15:00 +21°C° 0 mm 1 mps 726 mmHg 28%
    16:00 +21°C° 0 mm 1 mps 726 mmHg 27%
    17:00 +19°C° 0 mm 1 mps 726 mmHg 30%
    18:00 +18°C° 0 mm 1 mps 727 mmHg 34%
    19:00 +16°C° 0 mm 1 mps 727 mmHg 37%
    20:00 +15°C° 0 mm 1 mps 727 mmHg 38%
    21:00 +15°C° 0 mm 1 mps 727 mmHg 40%
    22:00 +14°C° 0 mm 1 mps 727 mmHg 41%
    23:00 +14°C° 0 mm 1 mps 727 mmHg 42%

    21 December, Thursday

    Time Temperature Precipitation Wind Pressure Humidity
    00:00 +14°C° 0 mm 1 mps 727 mmHg 43%
    01:00 +13°C° 0 mm 2 mps 727 mmHg 43%
    02:00 +13°C° 0 mm 1 mps 727 mmHg 45%
    03:00 +12°C° 0 mm 1 mps 727 mmHg 47%
    04:00 +12°C° 0 mm 1 mps 726 mmHg 49%
    05:00 +12°C° 0 mm 1 mps 727 mmHg 50%
    06:00 +11°C° 0 mm 1 mps 727 mmHg 51%
    07:00 +11°C° 0 mm 1 mps 727 mmHg 52%
    08:00 +13°C° 0 mm 1 mps 728 mmHg 46%
    09:00 +15°C° 0 mm 1 mps 728 mmHg 39%
    10:00 +19°C° 0 mm 1 mps 729 mmHg 32%
    11:00 +20°C° 0 mm 1 mps 728 mmHg 29%
    12:00 +21°C° 0 mm 1 mps 728 mmHg 26%
    13:00 +21°C° 0 mm 2 mps 727 mmHg 23%
    14:00 +21°C° 0 mm 2 mps 727 mmHg 23%
    15:00 +22°C° 0 mm 1 mps 726 mmHg 22%
    16:00 +22°C° 0 mm 1 mps 726 mmHg 22%
    17:00 +20°C° 0 mm 1 mps 726 mmHg 25%
    18:00 +18°C° 0 mm 1 mps 726 mmHg 27%
    19:00 +16°C° 0 mm 1 mps 726 mmHg 30%
    20:00 +16°C° 0 mm 1 mps 726 mmHg 31%
    21:00 +15°C° 0 mm 1 mps 726 mmHg 33%
    22:00 +15°C° 0 mm 1 mps 726 mmHg 34%
    23:00 +14°C° 0 mm 1 mps 725 mmHg 35%

    22 December, Friday

    Time Temperature Precipitation Wind Pressure Humidity
    00:00 +14°C° 0 mm 1 mps 725 mmHg 37%
    01:00 +13°C° 0 mm 1 mps 725 mmHg 38%
    02:00 +13°C° 0 mm 1 mps 724 mmHg 40%
    03:00 +12°C° 0 mm 1 mps 724 mmHg 42%
    04:00 +11°C° 0 mm 0 mps 724 mmHg 45%
    05:00 +10°C° 0 mm 0 mps 724 mmHg 45%
    06:00 +10°C° 0 mm 0 mps 724 mmHg 46%
    07:00 +10°C° 0 mm 0 mps 725 mmHg 46%
    08:00 +13°C° 0 mm 1 mps 725 mmHg 40%
    09:00 +16°C° 0 mm 1 mps 726 mmHg 34%
    10:00 +19°C° 0 mm 1 mps 726 mmHg 28%
    11:00 +20°C° 0 mm 1 mps 725 mmHg 26%
    12:00 +21°C° 0 mm 1 mps 725 mmHg 24%
    13:00 +22°C° 0 mm 1 mps 724 mmHg 22%
    14:00 +22°C° 0 mm 1 mps 724 mmHg 22%
    15:00 +22°C° 0 mm 1 mps 723 mmHg 22%
    16:00 +22°C° 0 mm 1 mps 723 mmHg 21%
    17:00 +20°C° 0 mm 1 mps 723 mmHg 23%
    18:00 +19°C° 0 mm 1 mps 723 mmHg 25%
    19:00 +18°C° 0 mm 1 mps 723 mmHg 27%
    20:00 +16°C° 0 mm 2 mps 723 mmHg 28%
    21:00 +16°C° 0 mm 2 mps 723 mmHg 28%
    22:00 +16°C° 0 mm 2 mps 722 mmHg 28%
    23:00 +16°C° 0 mm 2 mps 722 mmHg 28%

    23 December, Saturday

    Time Temperature Precipitation Wind Pressure Humidity
    00:00 +15°C° 0 mm 2 mps 722 mmHg 28%
    01:00 +15°C° 0 mm 2 mps 721 mmHg 28%
    02:00 +14°C° 0 mm 2 mps 721 mmHg 28%
    03:00 +13°C° 0 mm 3 mps 721 mmHg 28%
    04:00 +13°C° 0 mm 3 mps 720 mmHg 28%
    05:00 +13°C° 0 mm 3 mps 721 mmHg 28%
    06:00 +12°C° 0 mm 3 mps 721 mmHg 28%
    07:00 +12°C° 0 mm 3 mps 721 mmHg 28%
    08:00 +14°C° 0 mm 3 mps 721 mmHg 25%
    09:00 +17°C° 0 mm 4 mps 721 mmHg 22%
    10:00 +19°C° 0 mm 4 mps 722 mmHg 19%
    11:00 +20°C° 0 mm 3 mps 721 mmHg 18%
    12:00 +21°C° 0 mm 3 mps 720 mmHg 16%
    13:00 +23°C° 0 mm 2 mps 720 mmHg 15%
    14:00 +23°C° 0 mm 2 mps 719 mmHg 15%
    15:00 +23°C° 0 mm 2 mps 719 mmHg 16%
    16:00 +23°C° 0 mm 2 mps 719 mmHg 16%
    17:00 +21°C° 0 mm 3 mps 719 mmHg 17%
    18:00 +20°C° 0 mm 3 mps 719 mmHg 18%
    19:00 +19°C° 0 mm 3 mps 719 mmHg 19%
    20:00 +18°C° 0 mm 4 mps 719 mmHg 19%
    21:00 +18°C° 0 mm 4 mps 719 mmHg 19%
    22:00 +18°C° 0 mm 4 mps 719 mmHg 20%
    23:00 +17°C° 0 mm 4 mps 719 mmHg 20%
    Show more